{"data":{"norad_id":53543,"epoch":"2026-09-20T23:10:19.227648Z","epoch_age_seconds":38449,"freshness":"FRESH","line1":"1 53543U 22101S   26263.96550032 -.00000381  00000+0 -13793-6 0  9997","line2":"2 53543  53.1595 251.2451 0001333  87.4906 272.6250 15.34387682226690","mean_motion":15.34387682,"eccentricity":0.0001333,"inclination_deg":53.1595,"raan_deg":251.2451,"arg_perigee_deg":87.4906,"mean_anomaly_deg":272.625,"bstar":-1.3793e-7,"rev_number":22669,"period_min":93.848511487203,"perigee_km":461.82796325955,"apogee_km":463.65174102833,"semimajor_km":6840.8768521439,"source":"CELESTRAK","updated_at":"2026-09-21T09:00:32.902319Z"}}